Location: York
(31.8935°S, 116.7682°E)
Time: 12:39:01
(UTC+08:00)

Transit 2A - Visible Passes

Search period start: 06 October 2022 00:00
Search period end: 16 October 2022 00:00
Orbit: 601 x 956 km, 66.7° (Epoch: 05 October)

Date Brightness Start Highest point End Pass type
(mag) Time Alt. Az. Time Alt. Az. Time Alt. Az.
06 Oct 6.2 19:51:10 10° SSW 19:56:58 75° WNW 19:59:40 30° NNE visible
07 Oct 6.1 19:16:47 10° SSW 19:22:36 72° ESE 19:27:02 14° NNE visible
07 Oct 8.8 21:03:35 10° W 21:04:50 11° W 21:06:04 10° WNW visible
08 Oct 6.5 18:42:32 10° SSW 18:48:09 47° ESE 18:53:11 10° NE visible
08 Oct 8.5 20:27:06 10° WSW 20:30:46 18° WNW 20:34:11 10° NW visible
09 Oct 7.9 19:51:54 10° SW 19:56:38 28° WNW 20:00:58 10° NNW visible
10 Oct 7.2 19:17:04 10° SW 19:22:27 44° WNW 19:27:16 10° N visible
11 Oct 6.5 18:42:29 10° SSW 18:48:10 70° WNW 18:53:15 10° NNE visible
13 Oct 8.7 19:18:35 10° WSW 19:21:55 16° WNW 19:25:04 10° NW visible
14 Oct 8.4 18:43:16 10° SW 18:47:48 26° WNW 18:51:58 10° NNW visible
